Spokane, WA
on Saturday, December 29, 2012

Saturday
Previous Day Next Day
Daily Summary
 ActualAverageRecord
Temperature
Mean Temperature °F 27°F  
Max Temperature 25°F 32°F 58°F (1917)
Min Temperature 15°F 22°F -21°F (1968)
Degree Days
Heating Degree Days 45 38  
Month to date heating degree days 951 1091  
Since 1 July heating degree days 2336 2758  
Cooling Degree Days 0 0  
Month to date cooling degree days 0 0  
Year to date cooling degree days 535 450  
Moisture
Dew Point 21°F   
Average Humidity 94    
Maximum Humidity 100    
Minimum Humidity 88    
Precipitation
Precipitation 0.02 in 0.06 in 0.80 in (1904)
Month to date precipitation 2.58 2.17  
Year to date precipitation 21.32 16.43  
Snow
Snow 0.30 in 0.50 in 8.30 in (2008)
Month to date snowfall 18.1 13.6  
Since 1 July snowfall 24.0 21.1  
Snow Depth 4.00 in   
Wind
Wind Speed 3 mph   
Max Wind Speed 9 mph   
Max Gust Speed 12 mph   
Visibility 1 miles   
Events Fog , Snow   

Key: T is trace of precipitation, MM is missing value
Source: NWS Daily Summary
Time(PST)TemperatureDew PointHumidity Pressure Visibility Wind DirectionWind SpeedGust SpeedPrecipitationEvents Conditions
12:53 AM 21.0°F 19.9°F 96% 30.23 in 0.8 miles Calm Calm - N/A   Overcast
1:53 AM 21.0°F 19.9°F 96% 30.23 in 0.5 miles Calm Calm - N/A Fog Light Freezing Fog
2:53 AM 21.0°F 19.9°F 96% 30.23 in 0.5 miles Calm Calm - N/A Fog Light Freezing Fog
3:53 AM 19.0°F 18.0°F 96% 30.23 in 0.5 miles Calm Calm - N/A Fog Light Freezing Fog
4:53 AM 25.0°F 24.1°F 96% 30.22 in 0.5 miles Calm Calm - N/A Fog Light Freezing Fog
5:53 AM 23.0°F 23.0°F 100% 30.22 in 0.5 miles SSE 4.6 mph - N/A Fog Light Freezing Fog
6:21 AM 23.0°F 21.2°F 93% 30.13 in 0.5 miles South 4.6 mph - N/A Fog Light Freezing Fog
6:53 AM 19.9°F 19.0°F 96% 30.23 in 0.5 miles West 4.6 mph - 0.00 in Fog , Snow Light Snow
7:53 AM 21.9°F 21.0°F 96% 30.23 in 0.5 miles South 6.9 mph - 0.00 in   Overcast
8:53 AM 21.9°F 21.9°F 100% 30.23 in 0.5 miles South 8.1 mph - N/A   Overcast
9:53 AM 23.0°F 21.9°F 96% 30.23 in 0.5 miles SSW 8.1 mph - N/A   Overcast
10:53 AM 23.0°F 21.9°F 96% 30.23 in 0.5 miles South 5.8 mph - N/A   Overcast
11:53 AM 23.0°F 21.9°F 96% 30.21 in 0.5 miles SW 6.9 mph - N/A   Overcast
12:53 PM 24.1°F 23.0°F 96% 30.19 in 0.5 miles South 5.8 mph - N/A   Overcast
1:39 PM 24.8°F 23.0°F 93% 30.09 in 3.0 miles SE 3.5 mph - 0.00 in Snow Light Snow
1:53 PM 24.1°F 23.0°F 96% 30.18 in 3.0 miles SSE 3.5 mph - 0.00 in Snow Light Snow
2:10 PM 24.8°F 23.0°F 93% 30.09 in 2.0 miles SSE 3.5 mph - 0.00 in Snow Light Snow
2:19 PM 24.8°F 23.0°F 93% 30.09 in 1.0 miles South 3.5 mph - 0.00 in Snow Light Snow
2:45 PM 24.8°F 23.0°F 93% 30.09 in 1.0 miles SSE 3.5 mph - 0.00 in Snow Light Snow
2:53 PM 24.8°F 23.0°F 93% 30.09 in 2.0 miles SSE 3.5 mph - N/A Snow Light Snow
3:53 PM 24.1°F 21.9°F 91% 30.18 in 2.0 miles SSE 3.5 mph - 0.01 in Snow Light Snow
4:53 PM 24.1°F 21.9°F 91% 30.17 in 2.0 miles Calm Calm - 0.01 in Snow Light Snow
5:53 PM 24.1°F 21.9°F 91% 30.17 in 2.0 miles Calm Calm - 0.00 in Snow Light Snow
6:05 PM 23.0°F 21.2°F 93% 30.09 in 4.0 miles Calm Calm - 0.00 in Snow Light Snow
6:53 PM 21.9°F 21.0°F 96% 30.19 in 8.0 miles Calm Calm - 0.00 in Snow Light Snow
7:53 PM 18.0°F 17.1°F 96% 30.21 in 3.0 miles Calm Calm - 0.00 in   Mostly Cloudy
8:48 PM 17.6°F 17.6°F 100% 30.10 in 1.8 miles Calm Calm - N/A   Overcast
8:53 PM 19.0°F 18.0°F 96% 30.20 in 4.0 miles Calm Calm - N/A   Mostly Cloudy
8:59 PM 19.4°F 17.6°F 93% 30.11 in 1.0 miles Calm Calm - N/A   Mostly Cloudy
9:28 PM 15.8°F 15.8°F 100% 30.11 in 0.2 miles Calm Calm - N/A Fog Light Freezing Fog
9:53 PM 17.6°F 17.6°F 100% 30.12 in 0.2 miles Calm Calm - N/A Fog Light Freezing Fog
10:53 PM 19.0°F 18.0°F 96% 30.23 in 0.2 miles Calm Calm - N/A Fog Light Freezing Fog
11:53 PM 21.0°F 19.0°F 92% 30.23 in 0.2 miles Calm Calm - N/A Fog Light Freezing Fog
Moon Phase
Dec. 29 Jan. 04 Jan. 11 Jan. 18 Jan. 26
Sunrise:07:38 AM (PST) Moon Rise:05:52 PM (PST)12/29
Sunset:04:06 PM (PST) Moon Set:08:07 AM (PST)12/29

Copyright © 2014 The Weather Underground, Inc.